Probability
0 0 0 0 0 0 0 0 0 0 0 1 2 4 9 11 7 4 9 26 38 26 13 11 10 6 2 0 0 0 0 0 0 0 0 0 0 0 0 0 1 1 0 0 0 0 0 0 0
0 0 0 0 0 0 0 0 0 0 0 1 3 7 11 13 11 10 17 33 36 22 12 10 10 7 4 2 1 1 1 0 0 0 0 0 0 0 1 1 1 1 0 0 0 0 0 0 0
0 0 0 0 0 0 0 0 0 0 1 2 6 12 16 16 17 20 30 37 31 20 13 12 11 10 7 5 4 3 2 0 0 0 0 0 0 2 3 2 1 1 0 0 0 0 0 0 0
0 0 0 0 0 0 0 0 0 0 1 4 11 19 24 25 25 30 37 35 26 20 16 14 14 11 9 9 8 6 3 2 1 1 1 2 3 5 5 3 1 0 0 0 0 0 0 0 0
0 0 0 0 0 0 0 0 0 0 2 7 18 29 35 35 33 31 31 27 23 22 19 18 17 12 9 11 11 10 7 6 6 7 7 7 7 8 6 3 1 0 0 0 1 1 0 0 0
0 0 0 0 0 0 0 0 0 1 4 11 24 37 39 36 31 24 21 20 23 23 19 17 17 13 11 13 14 16 16 16 18 18 17 15 14 13 8 4 2 1 0 0 1 2 1 0 0
0 0 0 0 0 0 0 0 1 2 7 14 28 41 41 34 26 20 18 21 25 23 16 12 12 11 11 13 18 24 28 31 33 34 31 26 22 18 13 8 6 4 3 2 2 2 2 0 0
0 0 0 0 0 0 0 0 2 5 10 18 30 41 45 37 28 25 25 27 30 26 15 8 7 6 5 8 18 28 34 39 44 46 43 37 28 21 15 14 13 11 7 5 4 3 2 1 0
0 0 0 0 0 0 0 0 2 7 15 25 35 42 44 38 33 33 33 33 34 29 18 8 5 5 4 7 15 24 28 32 39 45 45 38 29 20 16 20 25 20 12 9 7 5 3 2 2
0 0 0 0 0 0 0 1 4 9 19 31 38 42 40 38 37 40 41 40 40 34 21 12 11 11 10 13 18 20 21 23 27 34 36 31 24 20 22 31 39 31 19 13 10 8 5 4 4
0 0 0 0 0 0 1 4 8 15 24 32 38 39 39 41 43 44 46 47 46 40 29 22 21 22 22 24 25 23 22 22 22 26 29 25 22 24 32 43 45 37 25 18 15 11 6 5 6
0 0 0 0 0 1 3 7 12 20 25 30 34 36 38 41 43 44 45 47 47 42 36 32 33 35 37 38 36 33 32 27 25 27 29 27 26 30 39 45 42 33 25 22 18 12 7 8 10
0 0 0 0 0 1 4 7 11 17 21 25 29 34 37 37 37 38 40 43 45 42 38 38 43 48 51 52 49 46 42 36 34 34 33 35 36 36 39 41 37 29 26 26 21 13 11 14 15
0 0 0 0 0 1 3 6 8 11 14 18 23 29 34 35 35 34 35 39 42 41 39 42 48 54 58 58 57 53 47 43 42 42 39 39 42 42 41 41 39 35 33 32 25 17 18 20 20
0 0 0 0 0 1 2 4 5 6 10 14 19 26 33 37 38 37 37 38 41 43 43 45 48 53 56 56 56 54 50 47 47 47 44 40 40 43 44 43 43 40 37 34 28 25 26 26 22
0 0 0 0 0 0 2 4 4 5 8 12 17 25 34 38 39 41 42 41 43 45 47 46 47 50 53 53 51 51 51 51 51 48 43 37 35 37 40 42 42 37 33 30 27 27 29 25 20
0 0 0 0 0 0 1 4 4 4 8 13 19 25 30 33 36 39 40 40 42 45 46 46 47 49 51 50 48 48 49 50 49 44 36 31 28 30 35 38 37 32 29 26 23 23 22 18 14
0 0 0 0 0 0 1 4 5 5 8 15 21 25 25 28 32 33 34 35 36 39 40 41 42 45 48 49 49 49 47 46 44 38 31 27 26 27 31 34 33 30 28 25 22 20 17 13 10
0 0 0 0 0 0 1 4 6 5 8 16 24 27 27 28 30 29 27 26 28 31 32 31 35 39 43 47 50 49 47 44 40 34 30 27 26 26 27 28 28 28 27 24 21 19 16 11 9
0 0 0 0 0 0 1 3 5 7 11 18 26 30 32 31 27 23 20 19 22 25 25 25 29 34 37 41 44 45 43 39 34 29 26 24 22 22 22 23 23 24 23 21 18 15 13 10 8
0 0 0 0 0 0 0 2 5 10 15 19 25 31 34 31 25 19 16 16 19 21 20 21 24 28 30 33 38 40 39 34 28 23 20 19 18 18 18 18 18 19 18 17 14 12 11 9 7
0 0 0 0 0 0 0 1 6 15 18 18 21 27 32 32 27 21 18 16 17 17 16 18 20 23 24 28 33 35 33 28 22 18 17 16 14 13 13 12 12 12 12 12 11 10 10 9 7
0 0 0 0 0 0 0 1 8 18 19 17 19 26 31 33 30 24 18 14 13 12 11 13 15 17 19 21 25 27 24 19 17 16 15 13 11 9 8 8 7 7 7 8 9 9 9 8 7
0 0 0 0 0 0 0 2 10 17 18 19 25 30 31 30 28 21 14 10 8 7 7 8 10 11 12 14 16 17 16 14 13 13 12 10 8 6 5 4 4 4 4 5 7 7 7 7 6
0 0 0 0 0 0 0 5 13 17 19 24 30 31 28 25 21 16 10 6 4 3 5 5 5 6 7 9 10 11 11 11 11 10 9 7 5 3 3 3 3 3 3 4 4 5 6 6 6
0 0 0 0 0 0 1 7 15 19 21 27 32 29 25 21 15 9 5 3 1 1 3 3 3 3 3 5 5 6 7 7 7 7 5 3 1 1 2 3 3 3 3 3 3 4 5 6 6
0 0 0 0 0 0 2 6 11 16 22 27 29 26 21 16 10 4 2 1 0 0 1 1 1 1 1 1 2 2 3 2 2 2 1 0 0 1 2 3 3 3 3 3 3 4 4 5 5
0 0 0 0 0 0 1 3 5 11 21 26 24 19 15 10 5 1 0 0 0 0 0 0 0 0 0 0 0 0 0 0 0 0 0 0 0 0 1 2 2 2 2 3 3 3 3 3 3
0 0 0 0 0 0 1 2 4 11 20 23 19 14 10 6 2 0 0 0 0 0 0 0 0 0 0 0 0 0 0 0 0 0 0 0 0 0 0 1 1 1 1 1 2 2 2 1 1
0 0 0 0 0 0 0 2 7 13 18 20 17 12 8 5 1 0 0 0 0 0 0 0 0 0 0 0 0 0 0 0 0 0 0 0 0 0 0 0 0 0 0 0 1 1 1 0 0
Wind_Speed
9 12 11 9 9 10 16 14 8 5 4 6 5 5 9 10 8 8 6 15 21 18 16 15 14 14 13 13 13 13 13 13 12 12 11 11 10 10 9 9 9 9 9 9 9 8 8 8 8
10 13 11 9 10 12 14 12 7 6 7 5 3 6 9 10 11 12 10 17 20 18 15 14 14 13 13 13 13 13 13 13 12 12 11 11 10 9 9 9 9 8 8 8 8 8 8 7 7
12 16 10 10 14 15 11 2 4 8 7 3 3 6 8 7 10 11 13 18 18 16 14 15 14 13 13 13 13 13 13 13 12 12 11 11 10 9 8 8 8 7 7 7 7 7 7 7 6
9 9 8 11 17 19 13 2 3 4 5 6 5 7 8 7 8 13 16 18 17 16 16 15 14 13 13 13 13 13 12 12 12 11 11 10 10 9 8 8 7 7 6 6 7 6 6 6 5
11 9 12 14 18 17 7 3 3 3 4 5 6 9 9 9 15 17 16 17 16 16 16 15 14 13 13 13 12 12 12 11 11 10 10 9 9 8 8 7 7 6 6 6 6 6 5 5 5
9 9 12 15 17 14 5 2 3 6 5 6 8 10 7 7 12 14 15 15 16 16 16 14 14 14 13 13 12 11 11 10 9 9 9 8 8 7 7 7 6 6 5 5 5 5 5 4 4
11 11 14 18 14 8 4 3 6 7 5 3 6 10 10 7 7 12 13 14 16 16 15 13 13 12 13 12 12 11 10 10 9 8 8 8 7 7 7 6 6 5 5 5 5 5 5 5 4
12 12 17 17 13 5 4 3 4 5 2 3 4 8 10 8 7 10 12 13 14 14 13 11 11 10 10 10 11 11 10 10 9 9 8 8 7 7 7 7 6 6 6 6 5 5 5 5 5
14 12 15 15 9 4 5 5 6 2 2 5 9 12 13 10 10 10 11 11 11 12 11 10 10 8 8 9 10 10 10 9 9 8 8 7 5 6 6 7 8 8 7 6 6 6 6 6 7
10 12 15 8 4 1 5 6 5 6 4 8 13 15 15 10 10 10 10 10 10 11 9 8 9 8 7 6 7 5 5 6 5 5 6 5 4 3 5 6 8 8 8 8 8 8 8 8 6
13 15 10 5 4 4 2 4 1 4 4 9 11 13 14 12 10 9 8 9 10 8 7 7 8 6 6 5 5 3 2 3 4 4 4 3 3 3 3 3 4 5 7 6 6 7 6 6 5
13 11 9 5 2 4 5 2 3 7 11 13 11 8 9 11 11 9 9 9 9 7 6 6 7 5 5 5 4 3 2 3 2 2 3 2 1 1 1 2 3 3 3 3 3 4 5 5 5
13 9 7 6 4 7 4 1 3 10 12 13 11 8 9 10 11 10 10 9 9 8 7 7 6 6 5 4 2 2 2 2 1 2 1 0 0 1 1 0 1 2 3 3 2 3 4 4 5
9 9 8 8 8 8 6 5 4 7 12 12 11 8 10 10 11 11 10 8 8 7 7 7 7 6 5 4 2 2 2 1 2 2 1 1 1 1 1 1 1 1 1 2 3 3 3 3 3
8 9 9 10 11 9 8 8 7 9 11 11 11 10 13 12 12 11 9 8 8 7 6 6 5 6 5 4 2 2 2 1 2 2 2 2 2 1 1 2 1 1 1 1 2 3 3 2 2
10 12 13 13 13 11 11 8 8 9 10 9 10 11 14 12 12 11 10 9 8 7 7 6 6 6 5 4 3 3 2 2 2 3 3 3 2 2 1 1 1 1 2 1 2 2 2 2 2
12 14 15 12 12 11 11 7 10 8 7 7 8 12 12 11 12 11 11 10 9 8 8 7 7 6 4 3 2 3 3 3 3 3 3 3 2 2 2 1 1 1 2 1 2 1 1 2 2
11 14 13 11 12 11 10 8 11 10 8 7 8 12 11 11 11 11 10 10 9 9 8 8 7 6 4 3 2 2 3 3 3 4 3 3 3 3 3 2 1 2 2 1 1 1 1 1 1
9 11 9 7 9 10 8 9 9 9 8 7 8 9 12 12 12 11 10 9 9 10 10 9 8 7 5 3 2 2 2 2 3 3 4 4 4 4 3 3 2 2 2 2 2 1 2 1 2
11 11 8 7 7 6 6 7 10 10 9 8 9 9 10 11 11 11 10 9 9 9 9 8 8 7 6 4 2 1 2 2 3 4 4 5 5 5 4 3 3 3 2 2 2 1 1 1 2
11 9 5 5 5 6 6 8 11 10 10 9 9 10 11 11 10 10 10 10 9 10 9 8 8 7 7 5 3 2 2 2 3 3 3 4 5 5 5 5 4 4 3 2 2 2 2 2 2
8 6 4 5 7 7 10 9 11 11 8 10 9 10 11 11 10 10 10 10 10 9 9 9 9 8 8 7 5 4 3 3 4 3 3 4 5 6 6 6 5 5 4 3 3 2 2 1 1
8 6 7 9 9 8 9 8 7 12 10 8 8 10 10 11 11 11 11 10 9 9 9 8 9 9 9 8 7 6 6 5 4 4 4 4 5 6 6 6 5 5 4 4 3 3 2 1 0
8 7 8 8 7 10 8 9 7 10 11 11 10 11 12 13 12 12 11 10 9 9 9 8 9 10 9 9 9 8 8 6 5 5 4 4 4 5 7 6 6 5 4 4 4 3 3 3 2
9 7 5 5 6 8 8 8 3 7 10 12 14 14 14 13 12 11 10 10 9 9 9 9 10 9 9 9 9 8 7 6 7 5 5 5 5 5 6 6 5 5 5 5 4 4 4 4 3
9 9 6 4 5 6 6 3 5 6 9 13 15 16 15 13 12 11 10 9 9 9 9 9 9 9 9 8 8 7 7 5 6 6 6 5 5 5 5 6 6 6 6 6 5 5 4 4 4
9 9 8 6 7 4 2 2 4 7 10 13 15 15 14 13 12 11 10 9 9 9 9 9 9 8 8 8 7 7 8 7 7 6 6 5 5 5 6 6 6 6 7 6 6 5 5 4 4
9 9 6 6 5 5 3 3 4 7 9 11 11 13 14 13 12 11 10 9 9 8 8 8 8 8 7 7 6 6 7 7 7 6 7 6 6 5 5 6 6 7 7 7 6 5 6 6 6
8 8 6 5 6 6 3 1 2 6 11 13 12 12 14 14 12 10 9 9 8 8 7 7 7 7 7 8 7 7 6 7 7 6 7 6 6 6 6 6 6 7 7 7 7 7 7 8 7
7 7 7 6 6 6 4 2 2 4 10 14 15 14 13 13 12 10 9 9 8 8 8 7 7 7 7 7 7 7 7 7 7 7 7 6 6 6 6 6 7 8 8 7 8 9 8 8 8
Wind_Direction
259 256 253 255 247 242 250 252 231 142 115 87 72 57 68 63 76 104 120 110 112 118 124 125 124 128 131 133 134 136 137 137 135 134 132 128 124 120 117 115 113 113 114 114 113 115 113 110 108
261 251 244 246 250 246 245 236 209 127 97 82 112 106 87 80 95 109 115 110 115 121 129 125 126 128 131 133 134 137 141 141 141 141 140 138 134 130 127 124 122 120 120 120 120 120 118 118 119
259 257 248 241 243 255 270 284 129 112 111 142 130 96 82 82 90 108 116 115 117 121 120 120 125 126 130 133 135 139 142 144 145 147 147 145 142 138 136 134 132 129 127 126 126 125 126 128 132
238 230 236 245 246 245 251 219 107 142 158 161 142 102 89 75 96 116 122 120 123 125 121 120 122 123 127 131 135 139 142 146 149 151 152 150 148 147 146 144 142 140 138 136 135 134 136 140 144
237 236 230 246 251 255 238 155 136 228 197 157 144 112 93 92 106 118 121 123 128 123 120 122 120 121 126 131 134 137 140 144 149 152 152 151 151 152 154 153 154 154 152 150 146 145 147 153 160
225 232 239 244 247 245 225 179 203 236 218 165 136 117 84 82 109 122 125 131 125 120 119 121 121 123 126 131 133 135 138 141 144 148 150 150 151 155 159 160 161 163 164 162 158 158 163 171 180
241 245 250 255 255 236 200 168 232 228 221 194 140 121 125 118 121 124 127 123 118 119 123 131 130 128 127 128 130 132 133 137 140 142 144 149 156 163 168 168 168 169 173 175 174 176 183 191 199
246 265 266 263 264 241 157 185 239 248 198 87 91 118 128 130 132 125 121 113 113 117 123 128 133 134 140 136 134 133 132 133 137 144 151 157 164 174 180 180 178 180 184 186 187 193 196 203 211
242 255 263 260 254 214 152 204 203 170 108 91 87 103 121 137 139 129 121 116 117 116 122 132 132 139 145 143 138 140 140 140 146 152 159 165 180 188 192 202 180 187 192 195 197 205 212 213 217
229 245 253 275 297 218 161 204 194 176 161 103 100 108 121 148 136 128 123 123 121 118 128 135 133 139 147 139 134 148 157 155 175 163 166 189 198 197 198 172 177 191 201 207 208 212 220 226 221
229 246 273 309 321 324 210 184 127 201 130 103 108 122 134 133 114 112 113 114 110 110 114 120 125 136 133 123 143 147 153 154 188 168 176 205 216 204 177 152 175 196 210 215 204 210 225 226 233
239 249 270 272 259 271 263 186 94 76 89 88 97 115 124 112 102 93 88 81 92 98 90 97 106 107 103 114 135 140 147 151 173 165 182 196 240 269 162 162 181 200 213 218 205 216 230 246 256
237 242 248 258 229 236 244 199 122 108 106 106 107 113 105 106 102 91 82 80 79 76 69 73 79 78 72 75 97 112 100 130 133 113 151 79 257 299 302 275 199 211 213 212 227 230 237 243 263
228 235 222 227 224 215 217 196 166 123 125 122 120 116 97 86 88 87 85 80 75 64 57 59 70 72 73 73 62 66 74 73 73 79 72 37 21 337 310 274 246 260 234 209 215 231 239 239 247
241 237 222 219 218 209 211 210 162 149 135 130 127 114 99 88 82 83 88 82 81 70 60 58 71 69 67 69 55 67 67 73 60 73 58 35 7 357 338 311 305 294 284 265 250 254 249 231 244
231 231 225 209 209 199 209 207 158 156 143 142 134 115 102 89 83 78 76 74 72 69 60 54 59 66 63 62 55 57 46 59 63 65 58 40 14 356 339 318 315 304 289 276 263 256 259 250 226
222 228 226 196 200 196 205 194 157 156 153 152 136 114 109 102 87 79 76 73 68 64 58 55 55 52 52 60 69 73 62 53 56 60 53 38 20 358 341 327 318 296 274 270 281 293 282 258 225
220 230 223 193 186 208 205 174 156 160 177 168 141 124 115 99 90 82 77 77 72 67 62 54 53 45 37 44 56 71 68 60 54 53 45 37 21 10 350 315 314 305 295 290 288 289 264 248 175
241 242 221 189 176 205 201 169 160 162 170 159 133 121 120 111 102 92 81 75 71 64 58 52 46 38 34 33 28 52 57 50 58 56 43 35 22 7 353 339 328 305 284 275 271 237 228 218 153
258 243 216 172 184 205 196 183 161 171 165 152 139 130 117 111 106 96 87 76 68 63 57 51 41 33 30 25 21 38 60 63 65 51 41 33 25 8 359 354 331 329 310 298 296 281 237 216 188
253 252 215 177 181 221 216 203 176 166 157 150 150 138 127 117 105 96 87 76 69 61 54 50 40 33 24 16 22 40 75 75 61 49 41 27 23 21 11 2 352 346 339 341 325 293 252 229 208
244 254 239 205 216 223 222 223 184 167 166 157 154 134 124 118 112 101 87 74 66 61 58 53 45 37 26 21 28 36 55 60 45 39 41 37 35 27 20 16 9 1 1 356 340 339 299 235 209
251 247 239 220 221 245 236 243 185 157 179 178 156 136 128 120 110 100 90 81 71 63 59 56 51 42 34 33 35 41 49 51 48 44 43 37 40 31 23 22 15 9 8 6 9 9 10 3 282
253 249 252 243 234 239 239 244 193 178 179 173 161 142 130 119 109 101 96 87 75 66 60 58 55 46 40 40 41 46 50 51 51 43 37 35 41 32 23 24 21 18 16 14 15 22 34 34 46
245 241 238 246 243 252 247 234 155 151 155 163 155 143 129 120 115 108 100 90 80 69 62 59 58 52 46 47 46 43 45 47 46 39 39 37 39 34 21 23 21 21 22 25 24 35 35 42 55
238 246 242 246 263 269 264 254 120 114 127 135 136 134 127 121 114 106 97 89 82 73 66 62 60 55 49 51 49 44 41 46 48 44 43 43 41 39 26 26 28 28 28 36 37 40 39 44 53
233 244 252 256 252 242 240 52 91 110 115 122 130 128 124 119 114 107 100 93 85 77 69 66 64 60 53 53 54 52 48 48 49 46 46 46 39 44 41 38 37 35 35 37 44 48 47 45 50
251 257 263 271 283 276 198 174 190 167 144 134 135 133 125 120 113 108 103 98 92 87 80 73 68 65 58 53 50 58 54 53 52 51 47 47 46 44 46 47 44 41 39 37 42 50 48 55 55
252 254 272 289 291 296 295 192 166 182 165 153 152 140 131 128 124 117 109 104 102 97 92 84 77 72 67 61 55 52 52 54 59 56 53 45 44 45 47 49 53 50 46 43 46 51 50 55 54
264 262 259 270 288 301 312 76 79 161 162 149 141 133 127 124 120 116 114 112 105 96 88 82 76 74 72 72 68 59 53 52 56 56 52 47 44 45 48 49 53 56 52 47 50 51 51 54 56